Fort Stewart, GA

10:02 PM EST on December 05, 2016 (GMT -0500)
Wright Army Air Field

Weather History for KLHW - July, 2012

Change the Weather History Date:

Monday, July 16, 2012

  Actual Average Record
Temperature  
Mean Temperature 80 °F -  
Max Temperature 90 °F 93 °F 103 °F (1981)
Min Temperature 70 °F 72 °F 33 °F (1997)
Cooling Degree Days 14    
Growing Degree Days 30 (Base 50)    
Moisture  
Dew Point 72 °F    
Average Humidity 77    
Maximum Humidity 99    
Minimum Humidity 54    
Precipitation  
Precipitation 0.00 in - - ()
Sea Level Pressure  
Sea Level Pressure 30.04 in    
Wind  
Wind Speed 2 mph (SSE)    
Max Wind Speed 9 mph    
Max Gust Speed -    
Visibility 10 miles    
Events      
Averages and records for this station are not official NWS values.
T = Trace of Precipitation, MM = Missing Value Source: NWS Daily Summary

Daily Weather History Graph

Daily Weather History Graph

Search for Another Location

Airport or City:

Trip Planner

Search our weather history database for the weather conditions in past years. The results will help you decide how hot, cold, wet, or windy it might be!

Date:

Astronomy

Jul. 16, 2012 Rise Set
Actual Time 6:31 AM EDT 8:32 PM EDT
Civil Twilight 6:04 AM EDT 8:59 PM EDT
Nautical Twilight 5:31 AM EDT 9:33 PM EDT
Astronomical Twilight 4:55 AM EDT 10:08 PM EDT
Moon 4:15 AM EDT (7/16) 6:36 PM EDT (7/16)
Length of Visible Light 14h 55m
Length of Day
14h 00m
Waning Crescent, 6% of the Moon is Illuminated
Jul 16
Waning Crescent
Jul 19
New
Jul 26
First Quarter
Aug 1
Full
Aug 9
Last Quarter

Hourly Weather History & Observations

Time (EDT) Temp. Heat Index Dew Point Humidity Pressure Visibility Wind Dir Wind Speed Gust Speed Precip Events Conditions
12:55 AM 73.8 °F - 73.4 °F 99% 30.10 in 10.0 mi Calm Calm - N/A   Clear
1:55 AM 73.0 °F - 72.7 °F 99% 30.09 in 10.0 mi Calm Calm - N/A   Clear
2:55 AM 72.1 °F - 71.8 °F 99% 30.07 in 10.0 mi Calm Calm - N/A   Clear
3:55 AM 72.0 °F - 71.6 °F 99% 30.06 in 10.0 mi Calm Calm - N/A   Clear
4:55 AM 71.4 °F - 71.1 °F 99% 30.06 in 10.0 mi Calm Calm - N/A   Clear
5:55 AM 71.2 °F - 70.9 °F 99% 30.07 in 10.0 mi Calm Calm - N/A   Clear
6:55 AM 70.9 °F - 70.7 °F 99% 30.08 in 10.0 mi Calm Calm - N/A   Clear
7:55 AM 74.3 °F - 73.6 °F 98% 30.09 in 10.0 mi Calm Calm - N/A   Clear
8:55 AM 80.6 °F 85.4 °F 73.6 °F 79% 30.09 in 10.0 mi Calm Calm - N/A   Clear
9:55 AM 83.8 °F 88.9 °F 71.4 °F 66% 30.09 in 10.0 mi Calm Calm - N/A   Clear
10:25 AM 84.2 °F 89.6 °F 71.6 °F 66% 30.09 in 10.0 mi West 5.8 mph - N/A   Mostly Cloudy
10:43 AM 84.2 °F 89.6 °F 71.6 °F 66% 30.09 in 10.0 mi Variable 3.5 mph - N/A   Mostly Cloudy
10:55 AM 84.9 °F 90.1 °F 70.9 °F 63% 30.09 in 10.0 mi North 3.5 mph - N/A   Scattered Clouds
11:55 AM 88.0 °F 93.8 °F 71.1 °F 57% 30.07 in 10.0 mi Variable 4.6 mph - N/A   Clear
12:55 PM 88.0 °F 92.5 °F 69.4 °F 54% 30.06 in 10.0 mi North 3.5 mph - N/A   Mostly Cloudy
1:55 PM 88.9 °F 96.6 °F 73.0 °F 59% 30.04 in 10.0 mi East 9.2 mph - N/A   Scattered Clouds
2:55 PM 89.8 °F 96.0 °F 70.9 °F 54% 30.01 in 10.0 mi Calm Calm - N/A   Clear
3:55 PM 88.0 °F 96.0 °F 73.4 °F 62% 29.99 in 10.0 mi SSE 8.1 mph - N/A   Scattered Clouds
4:55 PM 85.8 °F 93.0 °F 73.2 °F 66% 29.98 in 10.0 mi SSE 4.6 mph - N/A   Mostly Cloudy
5:55 PM 87.3 °F 93.6 °F 72.0 °F 60% 29.97 in 10.0 mi SSE 3.5 mph - N/A   Clear
6:55 PM 87.8 °F 94.7 °F 72.5 °F 60% 29.96 in 10.0 mi SE 5.8 mph - N/A   Clear
7:55 PM 84.9 °F 92.1 °F 73.6 °F 69% 29.98 in 10.0 mi SE 6.9 mph - N/A   Clear
8:55 PM 82.0 °F 88.1 °F 74.3 °F 77% 29.98 in 10.0 mi Calm Calm - N/A   Clear
9:55 PM 80.1 °F 84.6 °F 74.1 °F 82% 29.99 in 10.0 mi SSE 4.6 mph - N/A   Clear
10:55 PM 78.6 °F - 73.2 °F 83% 29.99 in 9.0 mi Variable 3.5 mph - N/A   Clear
11:55 PM 77.7 °F - 73.4 °F 86% 30.01 in 10.0 mi SW 3.5 mph - N/A   Clear